Torna al catalogo

COSMOS 1275 DEB

AttivoPO
NORAD 17638·DEBRIS·🇷🇺 Russia

Lanciato Jun 4, 1981 da Plesetsk Cosmodrome

Loading…

Prossimi Passaggi (prossime 24 ore)

TLE

AggiornatoSource: Space-Track

Epoca: Sep 14, 2026, 06:00 UTC

1 17638U 81053LH  26257.25007146  .00001125  00000-0  11415-2 0  9992
2 17638  82.9897 223.1679 0104885 342.2722  81.8767 13.73819669 57156

Traccia COSMOS 1275 DEB in tempo reale con AllMySat

Download on the App Store